Weather Service Report


040 
ASUS43 KLOT 122308
RWRIL 

ILLINOIS REGIONAL WEATHER ROUNDUP
NATIONAL WEATHER SERVICE CHICAGO/ROMEOVILLE IL
500 PM CST FRI FEB 12 2016

NOTE: "FAIR" INDICATES FEW OR NO CLOUDS BELOW 12,000 FEET WITH NO
SIGNIFICANT WEATHER AND/OR OBSTRUCTIONS TO VISIBILITY.

* THESE STATIONS ARE NOT UNDER NWS QUALITY CONTROL. THEY ALSO MAY NOT
  REPORT WEATHER SUCH AS PRECIPITATION OR FOG.

ILZ001-002-007-009-015-016-024-130000-
NORTHWEST ILLINOIS
  
CITY           SKY/WX    TMP DP  RH WIND       PRES   REMARKS
MOLINE         CLEAR     19   0  43 NW20G29   30.38R WCI   3          
STERLING*      CLEAR     19   1  45 NW17G28   30.29R WCI   4          
SAVANNA*       CLEAR     18   1  47 NW16G24   30.34R WCI   4          
$$

ILZ003-004-008-010-011-017-018-130000-
NORTH CENTRAL ILLINOIS
  
CITY           SKY/WX    TMP DP  RH WIND       PRES   REMARKS
ROCKFORD       PTCLDY    19   1  45 NW22G28   30.29R WCI   2          
FREEPORT*      PTCLDY    17   1  51 NW23G31   30.31R WCI  -1          
ROCHELLE*      PTCLDY    19   4  53 NW17G29   30.28R WCI   4          
DE KALB*       CLEAR     19   4  52 NW16G31   30.25R WCI   4          
$$

ILZ005-006-012>014-019>023-130000-
NORTHEAST ILLINOIS
  
CITY           SKY/WX    TMP DP  RH WIND       PRES   REMARKS
CHICAGO-OHARE  PTCLDY    19  -3  38 NW26G35   30.22R WCI   1          
CHICAGO-MIDWAY PTCLDY    22  -1  36 NW20G25   30.23R WCI   7          
AURORA         PTCLDY    21   3  45 NW22G32   30.25R WCI   5          
LANSING*       CLEAR     21  -1  37 NW16G26   30.22R WCI   7          
JOLIET*        MOCLDY    23   4  45 NW13G22   30.26R WCI  11          
WAUKEGAN       MOCLDY    16  -3  43 NW12G24   30.22R WCI   3          
DUPAGE AIRPORT PTCLDY    19   0  43 N20G25    30.23R WCI   3          
KANKAKEE*      MOCLDY    22   7  50 NW15      30.25R WCI   9          
WHEELING       CLEAR     18  -1  43 NW21G29   30.24R WCI   1          
MORRIS*        MOCLDY    22   5  48 NW16G26   30.25R WCI   8          
ROMEOVILLE*    MOCLDY    20   3  46 NW18G25   30.24R WCI   5          
NORTHERLY ISL    N/A     21   0  39 W13         N/A  WCI   9          
$$

LMZ740>746-130000-
SOUTHERN LAKE MICHIGAN
  
STATION/POSITION SKY/WX   TEMP    WIND        PRES    VSBY  WAVE
                          AIR SEA DIR/SP/G                  HT/PER
                          (F)     (DEG/KT/KT) (MB)    (MI)  (FT/S)
HARRISON CRIB              21     310/ 20/ 23   N/A
BURNHAM HARBOR             21     300/ 12/ 21   N/A
CALUMET HARBOR             21     300/ 13/ 19 1021.9R
BURNS HARBOR               21     300/ 20/ 22 1023.0R
MICHIGAN CITY              21     290/ 28/ 31   N/A
$$

ILZ025>027-034>036-040-047-049-050-058-095>099-130000-
WEST-CENTRAL ILLINOIS
  
CITY           SKY/WX    TMP DP  RH WIND       PRES   REMARKS
QUINCY         CLEAR     22   8  55 NW21      30.41R WCI   6          
GALESBURG*     CLEAR     20   2  44 NW15      30.36R WCI   6          
MACOMB*        CLEAR     23   5  46 NW21G28   30.40R WCI   8          
JACKSONVILLE*  PTCLDY    28  15  59 NW20      30.37R WCI  14          
PITTSFIELD*    PTCLDY    25  13  60 NW14G20   30.41R WCI  14          
$$

ILZ028>032-037-038-041>044-048-051>054-059>061-130000-
CENTRAL ILLINOIS
  
CITY           SKY/WX    TMP DP  RH WIND       PRES   REMARKS
PONTIAC        PTCLDY    24   7  48 NW22G30   30.28R WCI   9          
BLOOMINGTON    CLEAR     24   4  42 NW24G32   30.28R WCI   8          
DECATUR        PTCLDY    27  10  49 NW16G28   30.29R WCI  15          
PEORIA         CLEAR     23  -2  33 NW13G28   30.34R WCI  11          
LACON*         PTCLDY    22   3  43 W20G29    30.32R WCI   7          
LINCOLN*       CLEAR     27  10  49 NW14G22   30.31R WCI  16          
SPRINGFIELD    CLEAR     27  12  53 NW18G26   30.34R WCI  14          
TAYLORVILLE    MOCLDY    27  14  59 NW16G28   30.33R WCI  14          
$$

ILZ033-039-045-046-055>057-062-063-130000-
EAST-CENTRAL ILLINOIS
  
CITY           SKY/WX    TMP DP  RH WIND       PRES   REMARKS
CHAMPAIGN      CLEAR     25   9  50 NW23G32   30.26R WCI  10          
RANTOUL*       PTCLDY    27  10  50 NW20G26   30.25R WCI  13          
MATTOON        MOCLDY    25  14  63 NW21      30.27R WCI  11          
PARIS*         MOCLDY    25  15  63 NW14G21   30.26R WCI  14          
$$

ILZ079-100>102-130000-
SOUTHWEST ILLINOIS
  
CITY           SKY/WX    TMP DP  RH WIND       PRES   REMARKS
ALTON          PTCLDY    27  14  59 NW15G23   30.38R WCI  15          
BELLEVILLE     CLEAR     29  14  54 NW20      30.37R WCI  16          
CAHOKIA*       PTCLDY    30  14  51 NW17      30.39R WCI  18          
SPARTA*        PTCLDY    30  19  62 NW15G23   30.37R WCI  19          
$$

ILZ064>066-069>071-074>076-080>082-084>086-088>090-092>094-130000-
SOUTH-CENTRAL ILLINOIS
  
CITY           SKY/WX    TMP DP  RH WIND       PRES   REMARKS
CARBONDALE     PTCLDY    33  20  58 N18G24    30.35R WCI  22          
CAIRO*         CLEAR     37  26  64 NW9       30.33R WCI  31          
EFFINGHAM*     PTCLDY    27  17  67 W22       30.33R WCI  12          
MARION         PTCLDY    34  21  60 NW12      30.35R WCI  25          
MT. VERNON     CLOUDY    28  16  59 NW10G17   30.35R WCI  19          
CENTRALIA*     MOCLDY    29  18  63 NW18G25   30.34R WCI  16          
SALEM*         CLOUDY    29  17  60 NW18G24   30.34R WCI  17          
METROPOLIS*    PTCLDY    35  26  71 NW5       30.33R WCI  31          
$$

ILZ067-068-072-073-078-083-087-091-130000-
SOUTHEAST ILLINOIS
  
CITY           SKY/WX    TMP DP  RH WIND       PRES   REMARKS
LAWRENCEVILLE  CLOUDY    28  17  63 NW17      30.29R WCI  16          
FLORA*         PTCLDY    29  17  60 NW17      30.33R WCI  17          
FAIRFIELD*     CLOUDY    29  19  64 NW8G17    30.32R WCI  21          
HARRISBURG*    CLOUDY    32  23  70 NW13G20   30.34R WCI  22          
ROBINSON*      MOCLDY    27  16  62 NW16G25   30.30R WCI  15          
CARMI*         MOCLDY    29  20  68 NW17G26   30.32R WCI  17          
$$

ABBREVIATIONS USED IN REMARKS
   TC - TEMPERATURE IN CELSIUS
  WCI - WIND CHILL INDEX
   HX - HEAT INDEX
  VSB - VISIBILITY
$$

  

Return to Home page


Western Regional Climate Center, wrcc@dri.edu